North Windham, CT

11:39 PM EST on February 07, 2016 (GMT -0500)
Windham

Weather History for KIJD - December, 2012

Change the Weather History Date:

Friday, December 7, 2012

  Actual Average Record
Temperature  
Mean Temperature 32 °F -  
Max Temperature 42 °F 45 °F 75 °F (1998)
Min Temperature 21 °F 21 °F -2 °F (2002)
Degree Days  
Heating Degree Days 34    
Moisture  
Dew Point 32 °F    
Average Humidity 85    
Maximum Humidity 93    
Minimum Humidity 60    
Precipitation  
Precipitation 0.08 in - - ()
Sea Level Pressure  
Sea Level Pressure 30.14 in    
Wind  
Wind Speed 0 mph (North)    
Max Wind Speed 0 mph    
Max Gust Speed -    
Visibility 5 miles    
Events Rain    
Averages and records for this station are not official NWS values.
T = Trace of Precipitation, MM = Missing Value Source: NWS Daily Summary

Daily Weather History Graph

Daily Weather History Graph

Search for Another Location

Airport or City:

Trip Planner

Search our weather history database for the weather conditions in past years. The results will help you decide how hot, cold, wet, or windy it might be!

Date:

Astronomy

Dec. 07, 2012 Rise Set
Actual Time 7:02 AM EST 4:18 PM EST
Civil Twilight 6:31 AM EST 4:49 PM EST
Nautical Twilight 5:56 AM EST 5:24 PM EST
Astronomical Twilight 5:22 AM EST 5:57 PM EST
Moon 12:13 AM EST (12/7) 12:17 PM EST (12/7)
Length of Visible Light 10h 17m
Length of Day
9h 15m
Last Quarter, 39% of the Moon is Illuminated
Dec 7
Last Quarter
Dec 13
New
Dec 20
First Quarter
Dec 28
Full
Jan 4
Last Quarter

Hourly Weather History & Observations

Time (EST) Temp. Dew Point Humidity Pressure Visibility Wind Dir Wind Speed Gust Speed Precip Events Conditions
12:52 AM 21.9 °F 17.1 °F 82% 30.30 in 10.0 mi Calm Calm - N/A   Clear
1:52 AM 21.9 °F 17.1 °F 82% 30.30 in 10.0 mi Calm Calm - N/A   Clear
2:52 AM 23.0 °F 17.1 °F 78% 30.30 in 10.0 mi Calm Calm - N/A   Clear
3:52 AM 21.9 °F 17.1 °F 82% 30.28 in 10.0 mi Calm Calm - N/A   Partly Cloudy
4:04 AM 23.0 °F 17.6 °F 80% 30.27 in 10.0 mi Calm Calm - N/A   Mostly Cloudy
4:52 AM 24.1 °F 19.0 °F 81% 30.27 in 10.0 mi Calm Calm - N/A   Overcast
5:52 AM 25.0 °F 19.0 °F 78% 30.25 in 10.0 mi Calm Calm - N/A   Overcast
6:52 AM 27.0 °F 19.9 °F 75% 30.25 in 10.0 mi Calm Calm - N/A   Overcast
7:52 AM 28.0 °F 19.9 °F 72% 30.25 in 10.0 mi Calm Calm - N/A   Overcast
8:52 AM 30.0 °F 21.9 °F 72% 30.26 in 10.0 mi Calm Calm - N/A   Overcast
9:52 AM 33.1 °F 24.1 °F 70% 30.25 in 10.0 mi Calm Calm - N/A   Mostly Cloudy
10:14 AM 33.8 °F 24.8 °F 70% 30.22 in 10.0 mi Calm Calm - N/A   Mostly Cloudy
10:52 AM 37.0 °F 27.0 °F 67% 30.21 in 10.0 mi Calm Calm - N/A   Clear
11:52 AM 39.9 °F 28.0 °F 63% 30.18 in 10.0 mi Calm Calm - N/A   Overcast
12:52 PM 42.1 °F 28.9 °F 60% 30.16 in 10.0 mi Calm Calm - N/A   Overcast
1:52 PM 42.1 °F 34.0 °F 73% 30.13 in 6.0 mi Calm Calm - 0.00 in Rain Light Rain
2:52 PM 41.0 °F 36.0 °F 82% 30.12 in 6.0 mi Calm Calm - 0.03 in Rain Light Rain
3:52 PM 41.0 °F 37.9 °F 89% 30.11 in 3.0 mi Calm Calm - 0.00 in Rain Light Rain
4:52 PM 39.9 °F 37.0 °F 89% 30.11 in 2.5 mi Calm Calm - 0.00 in Rain Light Rain
5:13 PM 39.2 °F 37.4 °F 93% 30.10 in 3.0 mi Calm Calm - 0.01 in   Overcast
5:21 PM 39.2 °F 37.4 °F 93% 30.10 in 2.5 mi Calm Calm - 0.01 in   Overcast
5:40 PM 39.2 °F 37.4 °F 93% 30.09 in 3.0 mi Calm Calm - 0.01 in Rain Light Rain
5:52 PM 39.9 °F 37.9 °F 93% 30.09 in 2.5 mi Calm Calm - 0.02 in Rain Light Rain
6:04 PM 41.0 °F 37.4 °F 87% 30.08 in 3.0 mi Calm Calm - 0.00 in Rain Light Rain
6:19 PM 39.2 °F 37.4 °F 93% 30.09 in 2.5 mi Calm Calm - 0.00 in Rain Light Rain
6:22 PM 39.2 °F 37.4 °F 93% 30.09 in 1.8 mi Calm Calm - 0.00 in Rain Light Rain
6:31 PM 39.2 °F 37.4 °F 93% 30.09 in 3.0 mi Calm Calm - 0.00 in Rain Light Rain
6:37 PM 39.2 °F 37.4 °F 93% 30.09 in 2.5 mi Calm Calm - 0.01 in Rain Light Rain
6:52 PM 39.9 °F 37.0 °F 89% 30.10 in 3.0 mi Calm Calm - 0.01 in Rain Light Rain
7:00 PM 39.2 °F 37.4 °F 93% 30.09 in 2.5 mi Calm Calm - 0.00 in Rain Light Rain
7:12 PM 39.2 °F 37.4 °F 93% 30.09 in 2.5 mi Calm Calm - 0.00 in Rain Light Rain
7:20 PM 39.2 °F 37.4 °F 93% 30.09 in 3.0 mi Calm Calm - 0.00 in Rain Light Rain
7:27 PM 39.2 °F 37.4 °F 93% 30.09 in 2.5 mi Calm Calm - 0.00 in Rain Light Rain
7:52 PM 39.9 °F 37.0 °F 89% 30.09 in 2.5 mi Calm Calm - 0.01 in Rain Light Rain
7:59 PM 39.2 °F 37.4 °F 93% 30.08 in 2.0 mi Calm Calm - 0.00 in Rain Light Rain
8:18 PM 39.2 °F 37.4 °F 93% 30.08 in 2.0 mi Calm Calm - 0.00 in Rain Light Rain
8:50 PM 39.2 °F 37.4 °F 93% 30.08 in 3.0 mi Calm Calm - 0.00 in Rain Light Rain
8:52 PM 39.9 °F 37.0 °F 89% 30.09 in 3.0 mi Calm Calm - 0.00 in Rain Light Rain
9:00 PM 39.2 °F 37.4 °F 93% 30.08 in 2.5 mi Calm Calm - 0.01 in Rain Light Rain
10:02 PM 39.2 °F 37.4 °F 93% 30.07 in 2.5 mi Calm Calm - 0.00 in Rain Light Rain
10:15 PM 41.0 °F 37.4 °F 87% 30.06 in 3.0 mi Calm Calm - 0.01 in Rain Light Rain
10:52 PM 41.0 °F 37.9 °F 89% 30.06 in 3.0 mi Calm Calm - 0.01 in   Overcast
11:14 PM 39.2 °F 37.4 °F 93% 30.06 in 2.0 mi Calm Calm - 0.00 in Rain Light Rain
11:43 PM 41.0 °F 37.4 °F 87% 30.05 in 3.0 mi Calm Calm - 0.00 in   Overcast
11:52 PM 41.0 °F 37.9 °F 89% 30.05 in 3.0 mi Calm Calm - 0.00 in Rain Light Rain